Home   Weather   Timmins   Past weeks

Flag for Canada Past Weather in Timmins, Ontario, Canada — Yesterday and Last 2 Weeks

Now
32 °F

Light freezing rain. Low clouds.


Feels Like: 23 °F
Forecast: 33 / 38 °F
Wind: 12 mph from Northeast

Location: Timmins

Current Time: Apr 26, 2017 at 4:09:46 pm

Latest Report: Apr 26, 2017 at 3:00 pm


Visibility: 15 mi

Pressure: 29.88 "Hg

Humidity: 93%

Dew Point: 30 °F

Location of TimminsLocation

Past Weather in Timmins — Graph

°F

Timmins Temperature Yesterday

Maximum temperature yesterday: 64 °F (at 3:00 pm)
Minimum temperature yesterday: 28 °F (at 5:00 am)
Average temperature yesterday: 47 °F

High & Low Weather Summary for the Past Weeks

 TemperatureHumidityPressure
High64 °F (Apr 25, 3:00 pm)100% (Apr 15, 8:56 pm)30.49 "Hg (Apr 15, 8:56 pm)
Low12 °F (Apr 18, 6:00 am)19% (Apr 13, 5:00 pm)29.69 "Hg (Apr 15, 6:00 pm)
Average36 °F68%30.11 "Hg
* Reported Apr 11 3:00 pm — Apr 26 3:00 pm, Timmins, Weather by CustomWeather, © 2017

Note: Actual official high and low records may vary slightly from our data, if they occured in-between our weather recording intervals... More about our weather records

Advertising

Timmins Weather History for the Previous 24 Hours

Scroll right to see more
 ConditionsComfort  
Time TempWeatherWind HumidityBarometerVisibility
3:00 pm
Wed, Apr 26
32 °FLight freezing rain. Low clouds.12 mph93%29.88 "Hg15 mi
2:00 pm32 °FLight freezing rain. Ice fog.10 mph93%29.90 "Hg5 mi
1:00 pm32 °FLight freezing rain. Ice fog.16 mph87%29.90 "Hg3 mi
12:48 pm32 °FLight freezing rain. Ice fog.15 mph87%29.92 "Hg3 mi
12:00 pm30 °FLight freezing rain. Ice fog.14 mph93%29.94 "Hg6 mi
11:00 am30 °FLight freezing rain. Ice fog.9 mph86%29.95 "Hg6 mi
10:00 am30 °FLight freezing rain. Ice fog.12 mph86%29.95 "Hg6 mi
9:50 am30 °FLight freezing rain. Ice fog.9 mph80%29.95 "Hg6 mi
9:00 am28 °FLight freezing rain. Ice fog.15 mph86%29.94 "Hg4 mi
8:00 am28 °FLight freezing rain. Ice fog.13 mph86%29.95 "Hg5 mi
7:49 am28 °FLight freezing rain. Ice fog.10 mph86%29.94 "Hg5 mi
7:00 am28 °FLow clouds.14 mph86%29.94 "Hg12 mi
6:00 am28 °FOvercast.12 mph80%29.94 "Hg15 mi
5:00 am30 °FOvercast.9 mph75%29.92 "Hg15 mi
4:00 am32 °FOvercast.9 mph69%29.90 "Hg15 mi
3:00 am34 °FOvercast.9 mph65%29.90 "Hg15 mi
2:00 am36 °FMostly cloudy.13 mph65%29.89 "Hg15 mi
1:27 am37 °FMostly cloudy.8 mph65%29.89 "Hg15 mi
1:09 am37 °FLight rain. Mostly cloudy.14 mph81%29.88 "Hg15 mi
12:00 am52 °FMostly cloudy.3 mph72%29.84 "Hg15 mi
11:00 pm
Tue, Apr 25
54 °FMostly cloudy.6 mph67%29.83 "Hg15 mi
10:00 pm54 °FMostly cloudy.8 mph67%29.82 "Hg15 mi
9:00 pm57 °FMostly cloudy.10 mph55%29.81 "Hg15 mi
8:00 pm61 °FPartly sunny.9 mph48%29.80 "Hg15 mi
7:00 pm64 °FBroken clouds.12 mph34%29.79 "Hg15 mi
6:00 pm64 °FBroken clouds.14 mph32%29.82 "Hg15 mi
5:00 pm64 °FPartly sunny.16 mph32%29.82 "Hg15 mi
4:00 pm64 °FPartly sunny.12 mph32%29.82 "Hg15 mi
Weather by CustomWeather, © 2017

See weather overviewHow to use our weather pages